GPS BIIF-7

Last updated on Mon Sep 07 2026 00:02:48 GMT+0000 (Coordinated Universal Time)

1 40105U 14045A 26248.82456088 .00000015 00000+0 00000+0 0 9991 2 40105 55.4099 85.2525 0036222 119.6455 240.7867 2.00563580 87690
UTC large
Height (km)
Speed (km/s)
/
Latitude / Longitude
Inclination (degrees)
Orbital Period (minutes)
Azimuth
Elevation
Range (km)
Doppler Factor

Next 0 passes for location: London (51.5072 / 0.1276)

No passes found over London.
GPS BIIF-7